Location: Saratoga Springs
(43.0831°N, 73.7850°W)
Time: 11:47:49
(UTC-04:00)

Vanguard 3 - Pass Details

Date: 02 May 2024
Orbit: 509 x 3233 km, 33.3° (Epoch: 23 May)

Event Time Altitude Azimuth Distance (km) Brightness Sun altitude
Rises 05:08:49 0° 271° (W) 7,116 11.4 -7.1°
Reaches altitude 10° 05:14:05 10° 267° (W) 5,921 11.0 -6.2°
Maximum altitude 05:30:19 49° 201° (SSW) 2,749 9.6 -3.6°
Drops below altitude 10° 05:40:24 10° 130° (SE) 3,787 11.0 -1.9°
Sets 05:43:01 0° 124° (SE) 4,463 11.4 -1.5°
